GFSFLT2_con_lsi_078.txt.gz
Lid_Strength_Index
8 7 7 8 9 6 9 9 10 10 10 8 7 7 7 7 6 6 4 3 3 2 2 2 1 1 1 1 1 0 0 -0
9 7 7 6 6 10 9 13 14 11 11 12 10 10 8 8 8 6 4 4 3 2 2 1 1 1 0 0 1 0 0 0
8 8 8 8 8 8 8 9 12 13 12 9 10 9 9 8 7 6 6 5 4 3 2 1 1 1 1 1 1 1 0 0
9 8 8 8 8 7 10 11 9 10 14 7 7 8 7 8 7 6 5 5 4 4 3 2 1 1 1 1 1 0 0 0
10 9 8 8 8 8 8 7 9 11 14 6 6 7 6 7 7 7 6 6 6 5 4 3 3 2 1 1 1 0 0 1
11 9 8 9 10 9 8 9 10 9 12 9 8 7 6 6 6 7 7 7 6 6 5 5 3 2 2 1 1 0 0 0
8 9 9 9 10 10 9 8 10 9 10 9 7 7 6 5 5 6 6 7 6 6 6 6 5 4 3 2 1 1 1 1
9 9 9 10 10 10 10 10 8 8 10 6 6 5 5 5 5 7 7 7 6 6 5 5 5 5 5 4 2 1 1 1
11 10 10 11 9 9 9 8 8 9 8 6 6 6 5 5 5 5 6 7 7 6 6 5 5 4 5 5 3 3 1 1
10 11 14 9 7 8 8 7 7 7 6 6 6 5 4 4 4 4 4 4 5 5 6 5 5 5 4 3 4 4 4 4
11 11 11 11 10 9 8 9 6 7 6 6 5 5 5 4 4 4 4 4 4 4 3 3 4 4 4 4 2 2 4 4
10 12 13 8 7 6 6 10 6 6 6 6 6 7 7 5 5 5 4 4 4 4 3 3 2 3 3 3 3 2 2 3
10 12 9 7 6 5 10 11 6 5 5 5 6 5 5 3 4 4 4 4 4 4 3 3 2 3 3 3 3 2 2 1
10 12 13 5 6 8 7 5 5 5 5 5 5 4 4 4 3 3 3 3 4 4 4 3 2 3 3 2 1 0 1 2
9 9 6 4 5 4 5 5 5 5 5 5 5 5 4 4 4 3 3 3 3 3 3 3 3 3 3 2 2 1 0 1
8 6 6 5 4 4 4 5 4 4 4 4 5 5 4 4 4 3 3 3 2 2 3 2 2 2 2 2 2 1 1 0
8 6 6 4 4 4 4 4 4 4 4 5 5 5 4 4 4 4 4 4 4 3 4 4 4 3 2 1 0 2 1 1
8 5 5 5 3 3 4 4 4 4 4 4 4 4 5 5 5 5 5 4 4 4 3 3 3 2 2 2 2 2 1 2
5 4 4 3 3 3 3 3 4 4 4 4 4 4 4 4 4 4 4 4 4 4 4 4 3 3 3 2 2 4 4 2

GFSFLT2_con_lsi_081.txt.gz
Lid_Strength_Index
6 5 6 8 9 6 9 8 10 10 11 8 7 7 7 7 6 5 4 4 4 3 3 2 2 1 1 1 1 0 0 0
6 6 5 7 6 9 9 13 13 12 12 12 10 9 8 8 8 6 4 5 5 4 2 2 2 1 1 0 1 0 0 0
6 7 8 7 8 7 7 9 11 14 14 8 9 9 9 8 7 6 6 5 5 3 3 3 1 1 1 1 1 1 0 -0
8 6 6 6 7 7 10 11 9 10 14 7 7 7 7 8 7 6 5 5 5 3 3 3 3 2 2 1 1 0 0 0
10 8 6 7 7 6 7 7 9 11 14 7 7 7 7 7 7 6 6 4 5 5 5 4 3 2 2 2 2 1 0 0
11 9 7 8 8 7 7 9 9 10 12 9 7 8 7 6 6 7 6 6 5 5 5 5 5 4 2 2 1 1 1 1
8 7 7 7 8 8 8 8 9 11 11 9 7 7 6 5 5 5 5 6 7 6 5 4 5 5 4 3 1 1 1 1
8 8 8 9 8 8 8 8 7 9 11 6 5 5 5 5 5 5 6 6 5 5 5 5 5 4 4 4 2 1 1 1
10 8 9 10 8 8 7 7 7 10 8 6 6 6 5 5 4 4 4 5 5 5 5 5 5 4 4 4 2 3 4 4
10 9 13 8 6 6 7 6 6 7 6 6 5 4 4 3 4 4 3 3 3 4 4 4 4 4 4 3 2 3 4 4
11 11 9 8 7 7 7 8 5 6 6 5 4 4 5 3 3 3 3 3 2 2 2 1 3 3 3 3 2 2 2 3
9 12 13 8 6 5 5 10 5 5 5 5 5 8 7 3 4 4 3 3 3 3 2 2 1 1 2 2 1 2 2 2
10 11 9 6 6 5 11 10 5 4 5 5 5 5 4 4 4 3 3 3 3 3 3 2 2 2 2 1 1 1 0 0
9 11 12 5 5 8 7 4 4 4 5 5 4 4 5 4 4 4 4 4 3 3 3 2 2 2 2 2 1 0 1 0
8 9 6 4 5 4 3 4 4 4 3 4 4 4 4 3 3 3 4 4 3 3 3 3 2 2 2 2 1 1 1 0
8 6 6 5 4 3 3 3 3 3 3 3 4 3 3 3 3 2 2 2 3 2 3 3 2 2 3 2 2 2 1 1
7 5 5 4 4 3 3 3 4 3 4 4 4 4 3 3 3 3 3 3 3 3 3 3 3 3 3 2 2 2 2 2
8 5 5 4 3 2 3 4 4 4 4 3 3 3 3 3 3 3 3 3 3 3 3 3 3 3 2 2 2 3 3 3
5 3 3 3 3 2 3 3 3 3 3 3 3 3 3 3 3 4 3 3 3 3 3 4 3 4 4 3 3 3 4 3

GFSFLT2_con_lsi_084.txt.gz
Lid_Strength_Index
5 5 6 8 9 7 10 9 11 12 12 9 8 8 7 7 6 6 5 5 4 3 3 2 2 2 2 2 1 1 1 1
6 5 5 7 6 10 10 14 14 14 14 13 11 10 8 8 7 7 6 5 5 4 3 2 2 1 1 1 1 1 1 1
7 8 9 8 9 8 8 9 13 16 16 9 10 9 9 8 7 7 6 5 5 4 4 3 2 2 1 2 1 1 1 1
9 6 5 7 8 8 11 12 10 15 15 7 8 8 8 7 7 6 5 5 4 4 3 4 3 2 2 2 1 1 1 1
10 8 6 8 7 7 7 8 11 16 15 7 8 8 7 7 6 6 5 5 4 4 4 4 4 3 2 2 2 1 1 1
13 10 8 9 8 7 8 10 10 13 13 10 9 9 8 7 6 6 6 5 4 4 4 4 4 4 3 2 2 1 1 1
9 8 7 8 8 8 9 8 14 12 12 10 9 8 7 6 5 6 6 6 5 5 4 4 4 4 4 3 2 1 1 1
9 8 8 8 7 7 7 8 9 9 11 7 7 6 6 6 5 5 6 6 6 5 5 5 4 3 3 3 3 2 2 2
11 9 9 10 9 8 7 7 9 13 10 7 7 6 6 5 5 5 5 5 5 5 5 5 5 3 3 2 2 3 3 3
10 9 14 8 6 7 7 7 7 8 8 6 6 5 5 4 4 4 4 4 4 4 4 4 5 4 2 2 2 2 2 3
12 11 9 9 7 7 8 8 6 7 7 6 5 5 5 4 3 4 3 3 3 3 2 2 3 3 3 3 2 2 2 2
10 12 14 9 6 5 6 9 5 5 6 6 5 9 7 4 3 3 3 3 3 2 2 2 1 1 1 3 2 2 2 1
10 11 10 6 6 5 10 9 5 5 5 5 6 6 4 3 3 3 3 3 3 2 2 2 1 2 1 1 2 1 0 0
9 11 13 5 6 9 7 5 4 4 4 5 4 4 4 4 4 3 3 3 3 3 3 2 2 2 2 2 1 0 0 0
9 11 6 5 6 4 4 5 4 4 4 4 4 4 4 4 4 4 3 3 3 3 3 2 2 3 3 2 1 1 1 1
8 7 6 5 4 4 3 4 3 3 3 3 4 4 5 4 4 4 4 4 4 4 4 4 3 3 3 3 2 2 2 2
7 6 5 5 4 3 3 3 3 3 3 3 3 3 3 3 3 3 3 3 3 4 4 4 4 4 4 3 3 5 4 4
8 5 5 5 3 3 3 3 3 3 4 3 3 3 3 3 3 3 3 3 3 3 3 3 4 3 3 3 3 4 4 4
6 4 4 3 3 2 3 3 3 3 3 3 3 3 3 3 3 4 3 3 3 4 3 3 4 4 4 4 4 4 5 4

GFSFLT2_con_lsi_087.txt.gz
Lid_Strength_Index
6 6 8 10 11 10 13 12 15 16 14 11 9 9 8 8 7 6 6 5 4 4 3 3 2 2 2 2 2 1 1 1
7 6 7 9 9 13 14 17 18 18 17 16 12 11 9 9 8 7 6 5 4 4 3 3 2 2 2 2 2 1 1 1
8 10 10 10 12 11 12 13 16 20 18 11 11 10 10 8 7 7 6 5 5 4 3 3 2 2 2 2 2 2 1 1
12 8 7 9 10 11 14 15 14 16 17 9 9 8 8 8 7 6 6 5 4 4 3 3 3 3 2 2 2 2 1 1
14 10 9 12 10 11 11 13 13 16 17 9 8 8 7 8 7 6 6 6 5 5 4 4 3 3 3 2 2 2 3 2
16 14 12 12 10 10 12 14 15 15 15 12 10 9 8 7 6 6 6 5 5 5 5 4 4 3 3 2 1 1 2 3
10 9 9 9 10 10 12 12 15 14 14 11 10 9 8 7 6 6 7 7 6 6 5 4 4 4 3 2 2 2 2 3
12 9 10 10 9 8 10 10 12 12 13 9 7 7 7 6 7 6 6 6 6 6 6 6 5 4 3 4 3 2 3 2
15 11 11 12 10 10 10 9 11 14 11 8 8 8 7 7 7 8 7 7 7 7 6 6 4 3 3 3 3 3 3 3
14 12 16 11 9 9 9 9 9 9 9 8 7 7 6 6 7 6 6 6 7 7 8 7 7 5 3 2 2 2 3 3
15 15 11 10 9 10 10 12 8 9 7 7 6 7 7 6 6 6 6 6 6 5 6 6 6 6 5 5 6 6 5 4
14 17 17 12 9 8 8 14 7 7 7 7 7 11 10 7 6 6 6 6 6 4 4 4 5 5 6 5 6 6 6 5
13 14 12 8 7 7 12 13 7 6 7 7 9 8 7 6 6 6 6 6 5 4 4 4 3 3 3 3 3 3 3 3
12 14 17 7 7 11 9 7 6 6 6 7 7 6 6 6 6 5 5 4 4 4 4 4 4 4 4 5 3 3 3 3
13 13 8 6 7 6 5 6 6 7 6 6 6 6 6 6 6 5 5 5 5 5 5 5 4 5 6 5 4 4 5 5
11 9 8 6 5 5 5 5 5 6 7 6 7 6 6 6 6 5 6 6 5 6 6 6 6 6 6 6 5 6 7 6
10 8 7 6 5 5 5 4 4 4 5 6 6 6 6 6 6 6 6 6 6 7 7 7 7 7 7 7 7 7 7 7
12 8 8 7 5 4 4 4 4 4 4 4 4 4 4 5 5 5 5 6 6 6 7 7 7 8 8 7 7 8 9 8
8 6 6 5 4 4 4 4 3 4 4 5 4 4 4 5 5 5 5 5 6 6 6 6 6 7 6 6 6 7 7 7

GFSFLT2_con_lsi_090.txt.gz
Lid_Strength_Index
8 8 9 11 14 11 14 13 16 16 14 11 9 9 8 8 7 6 6 5 5 4 3 3 3 2 2 2 2 1 1 1
8 8 8 9 9 13 14 17 19 18 17 17 13 11 9 9 8 7 6 5 4 4 3 3 2 2 2 1 2 1 1 1
9 12 11 10 12 12 13 15 16 20 18 11 12 10 10 9 8 7 6 5 5 4 3 3 2 2 2 1 2 2 1 1
12 8 8 9 10 12 15 16 15 17 17 9 9 9 8 8 7 6 5 5 4 4 3 3 3 2 2 2 2 2 2 2
14 11 10 12 12 13 13 14 15 17 17 9 8 9 8 8 7 6 5 5 5 4 4 3 3 3 2 2 2 1 2 2
17 14 12 12 11 12 14 16 16 17 15 12 10 9 8 7 7 6 6 5 5 5 5 4 3 3 2 2 1 1 1 2
12 11 10 11 12 12 13 13 15 15 14 12 10 9 8 7 6 6 6 6 6 6 5 4 3 3 2 2 2 1 1 2
13 10 11 12 11 11 10 11 13 13 13 9 8 7 7 7 6 7 6 7 6 6 5 5 4 4 4 3 2 2 2 2
15 12 13 15 13 11 10 10 12 15 12 9 9 8 7 7 6 6 7 8 8 7 6 5 4 4 4 3 3 3 3 3
15 13 17 13 10 9 10 10 10 10 9 8 8 7 7 8 8 7 8 8 8 8 8 8 5 2 3 3 3 3 3 3
16 16 14 12 10 11 12 13 9 9 8 8 8 7 8 7 8 9 9 9 8 8 8 7 7 6 6 7 6 6 6 5
14 17 18 13 9 8 8 15 8 8 8 9 8 11 10 8 7 8 7 7 7 7 7 7 7 7 7 8 8 8 7 7
14 15 13 8 7 7 14 14 8 7 8 9 10 9 8 8 8 8 7 7 6 6 6 6 5 6 6 6 7 7 7 6
13 15 17 7 7 11 9 8 8 8 9 9 8 8 8 8 9 7 7 6 6 6 6 6 6 6 7 7 6 5 6 6
13 13 8 7 7 6 7 8 8 8 8 7 8 8 8 7 7 8 7 7 6 7 7 7 7 7 7 7 6 7 7 7
11 9 8 7 6 6 6 7 7 7 7 8 8 8 7 7 7 7 7 6 6 7 7 8 7 7 8 7 7 8 8 8
11 9 7 6 6 6 5 5 6 6 6 7 7 7 7 7 7 7 7 7 7 7 8 8 8 8 8 8 8 9 9 9
12 8 9 7 5 5 6 6 6 6 7 6 6 7 7 8 7 7 7 7 8 8 8 8 9 9 8 8 8 9 9 9
8 6 6 6 4 4 5 5 5 6 5 5 5 6 5 6 6 5 6 6 6 7 7 7 8 8 8 8 8 9 10 10

GFSFLT2_con_lsi_093.txt.gz
Lid_Strength_Index
8 8 9 12 13 12 14 15 16 17 15 11 9 9 8 8 7 7 6 5 4 4 3 3 3 2 2 2 2 2 1 1
8 9 9 10 10 14 15 19 20 18 19 17 13 11 10 9 8 7 6 5 4 4 3 3 2 2 2 2 2 1 1 1
10 12 12 11 12 13 14 14 18 20 18 12 12 10 10 9 7 7 6 5 5 4 3 3 2 2 2 2 2 2 1 2
12 9 9 11 11 12 15 16 16 16 17 9 9 9 8 8 7 6 5 5 5 4 3 3 3 2 2 2 2 2 2 2
13 12 11 12 12 13 13 14 17 18 17 9 9 9 8 8 7 6 6 5 4 4 4 3 3 3 2 2 2 1 2 2
16 14 13 13 11 11 14 15 16 16 15 12 10 10 8 8 7 6 6 5 5 5 4 3 3 3 2 2 1 1 1 1
13 12 11 12 11 12 14 13 15 15 14 12 10 9 8 7 6 7 6 6 5 5 4 4 3 3 2 2 2 1 2 2
13 11 12 13 12 12 11 12 13 13 13 9 8 7 8 7 7 7 6 6 5 5 4 4 4 3 3 3 2 1 2 2
16 12 13 15 13 13 11 12 12 15 12 9 9 8 8 7 7 7 6 6 6 5 5 4 4 4 4 3 3 3 3 2
16 14 17 14 11 10 11 11 10 11 10 9 8 7 6 6 7 7 7 8 8 8 6 4 4 4 6 6 6 5 4 3
17 17 13 12 11 11 13 13 9 10 9 8 8 8 9 7 7 7 8 8 9 8 7 7 7 7 7 7 7 7 7 6
15 18 19 12 9 8 8 15 8 8 8 9 8 11 10 8 8 8 8 8 7 7 7 7 8 8 8 8 8 8 7 7
14 16 14 9 8 8 15 14 7 7 8 8 10 10 9 8 8 8 8 7 7 8 8 8 8 8 9 9 9 9 9 9
15 15 17 7 7 11 11 10 7 8 8 9 9 8 9 9 8 7 8 8 7 8 9 9 8 8 9 8 8 8 8 9
13 13 8 7 9 7 7 9 8 8 8 8 8 9 8 8 7 7 7 8 8 9 10 10 9 9 10 9 8 8 8 8
11 10 8 8 7 8 7 8 7 7 7 7 8 7 8 8 8 8 8 8 8 9 10 10 10 9 9 9 9 9 9 9
11 9 8 7 7 6 7 7 7 6 6 6 7 7 7 8 8 8 8 8 9 10 10 11 11 10 9 9 9 9 10 10
12 9 10 8 7 5 6 6 6 6 7 6 6 7 8 8 8 8 8 8 9 9 9 9 9 9 9 9 9 10 10 10
9 8 7 7 6 5 6 6 6 6 6 6 6 7 7 8 8 7 8 8 9 9 9 9 9 9 9 9 9 10 11 11

GFSFLT2_con_lsi_096.txt.gz
Lid_Strength_Index
8 9 9 13 15 13 16 16 18 17 14 11 9 9 8 8 7 7 6 5 4 4 3 3 2 2 2 2 2 1 1 1
8 9 10 11 10 14 16 19 21 17 17 15 13 11 9 9 8 7 6 5 4 4 3 3 2 2 2 1 2 1 1 1
11 12 12 12 13 13 13 14 18 20 17 12 12 10 10 9 7 7 6 5 5 4 3 3 2 2 2 2 1 1 1 1
12 10 9 11 13 12 14 16 16 16 16 9 9 9 8 8 7 6 5 5 4 4 3 3 3 2 2 2 2 1 1 1
14 12 11 12 12 13 14 13 17 17 16 9 9 9 8 8 7 6 6 5 5 4 4 3 3 3 2 2 2 2 2 1
16 14 13 13 12 11 14 15 15 15 15 12 10 10 8 8 7 6 6 5 5 4 4 3 3 3 2 2 1 1 1 1
13 11 11 12 13 12 14 14 14 13 14 12 10 9 8 7 7 7 6 6 5 5 4 4 3 3 2 2 1 1 1 1
13 11 11 13 12 11 11 12 13 13 15 9 8 7 8 7 7 7 6 6 5 4 4 4 3 3 2 2 2 1 2 2
16 12 12 15 12 13 12 11 12 15 12 9 9 9 8 7 6 7 6 5 5 4 4 5 4 3 4 3 2 2 2 2
16 14 18 14 10 10 11 11 10 10 10 9 8 7 6 6 7 6 6 7 6 5 5 6 6 6 6 6 6 5 5 4
17 17 13 11 10 11 13 13 9 10 9 8 8 8 8 6 7 8 7 7 6 6 6 7 8 7 8 8 8 8 8 7
15 18 19 12 8 8 8 15 8 8 9 8 7 11 9 7 7 7 7 6 7 7 7 7 7 7 8 9 9 9 9 8
15 16 14 9 8 7 14 13 8 7 8 7 10 9 9 7 8 7 6 7 7 7 8 9 9 8 9 9 9 9 8 8
15 17 17 8 8 11 10 9 7 7 7 8 9 8 9 9 8 8 8 8 8 9 9 9 8 8 9 9 9 8 9 9
13 13 9 8 9 7 7 8 7 8 7 7 8 8 8 8 7 8 8 9 8 9 10 10 9 9 9 9 8 9 9 9
11 10 8 7 7 7 7 6 6 6 6 6 8 8 8 7 8 8 9 9 10 10 10 10 9 9 9 9 9 9 10 10
11 9 8 7 7 7 6 6 6 5 5 6 7 7 7 8 8 8 8 8 9 9 10 10 10 10 9 10 10 10 10 10
12 9 9 8 7 6 6 6 6 6 6 5 6 7 7 7 7 8 8 9 9 9 10 11 10 10 10 9 10 10 11 11
9 7 8 7 5 5 5 5 5 5 6 7 6 6 7 8 8 8 8 9 9 9 9 9 9 9 9 9 9 10 11 10

GFSFLT2_con_lsi_099.txt.gz
Lid_Strength_Index
6 6 6 8 11 8 12 12 14 14 12 9 8 8 7 7 6 6 5 4 4 3 3 2 2 2 1 1 1 0 0 0
7 6 7 7 6 10 10 16 17 14 15 12 12 10 8 8 7 6 5 4 4 4 3 2 2 2 1 1 1 0 0 0
7 8 8 8 9 9 9 10 14 15 14 10 10 9 9 8 6 6 5 5 4 3 3 3 2 2 1 1 1 1 0 0
9 7 7 7 8 8 11 13 11 11 12 8 8 8 8 7 6 5 5 4 4 3 3 3 3 2 2 1 1 0 0 1
11 9 7 9 8 8 9 9 12 13 11 8 8 8 7 8 7 6 5 5 4 4 3 3 3 2 2 1 1 1 0 0
12 11 9 11 9 9 9 11 10 11 11 11 10 9 8 7 6 6 5 5 4 4 3 3 2 2 2 2 1 1 1 1
9 9 9 9 10 10 10 9 11 9 11 10 9 9 8 7 7 6 6 5 5 4 4 3 3 2 2 1 1 1 1 1
11 9 9 10 10 9 10 9 9 10 10 7 7 7 8 7 7 7 6 6 5 4 4 3 3 2 2 2 2 1 1 2
13 10 10 12 10 9 10 9 10 12 10 7 9 8 8 7 7 6 6 5 5 4 4 3 3 2 2 2 1 1 1 1
13 11 16 9 7 8 10 10 9 9 9 8 8 7 6 5 6 6 5 5 5 6 6 6 6 5 5 5 5 4 4 3
14 14 11 9 9 9 10 11 8 9 9 8 7 7 7 5 4 5 5 6 6 6 7 7 7 7 6 6 6 6 6 5
13 15 16 10 7 6 7 13 8 8 8 8 7 11 9 6 5 5 6 6 7 7 7 7 8 7 8 8 7 6 6 6
13 14 12 8 7 6 13 11 7 7 7 7 8 7 5 5 5 5 6 7 7 8 8 8 7 6 7 6 7 7 6 6
12 13 15 6 7 10 8 6 6 6 7 7 6 5 5 5 5 6 7 8 8 8 9 8 7 7 8 8 7 6 6 6
10 11 7 5 6 5 5 6 6 6 5 6 5 6 6 7 6 7 7 7 7 8 8 7 6 6 6 7 6 6 6 6
10 8 7 6 5 5 5 5 5 4 5 6 6 6 7 7 6 5 5 5 6 6 7 7 7 7 6 6 6 6 6 6
9 7 6 5 5 5 5 4 4 4 5 6 6 6 6 7 7 6 5 5 5 6 7 7 7 7 6 6 6 7 6 6
10 7 6 6 4 4 4 5 4 4 5 4 6 6 6 7 7 7 7 7 6 6 7 7 7 7 7 7 7 7 7 8
6 5 5 4 3 3 4 4 3 3 3 5 4 5 5 6 6 6 6 7 7 7 7 7 7 7 7 7 7 8 8 8

GFSFLT2_con_lsi_102.txt.gz
Lid_Strength_Index
5 5 5 7 10 7 11 10 13 11 10 8 7 7 6 6 5 5 5 4 3 2 2 2 1 1 1 1 0 0 0 -0
6 5 5 6 5 10 10 14 15 12 12 10 10 8 7 6 6 6 5 4 4 3 2 2 1 1 1 0 1 0 -0 -0
6 7 7 7 8 7 8 9 12 14 12 8 8 7 7 6 5 5 5 4 4 3 2 2 1 1 1 1 0 0 0 -0
8 6 5 6 7 7 10 11 9 10 10 7 7 7 7 6 5 5 4 4 4 4 3 3 2 2 2 1 1 0 -0 -0
10 8 6 7 7 7 7 7 9 11 10 7 7 7 7 6 5 5 4 4 3 3 3 3 2 2 2 2 1 1 0 0
11 10 7 9 8 7 7 10 9 9 8 9 8 8 7 7 6 5 5 4 4 3 3 2 2 2 2 2 1 1 0 0
8 8 8 8 8 8 8 8 9 8 8 6 7 7 7 6 6 6 5 5 4 4 3 3 3 2 2 2 1 1 1 1
9 8 8 9 8 8 8 8 7 7 8 6 5 6 6 6 6 6 6 5 4 4 3 3 3 2 2 1 1 1 1 2
11 8 9 11 8 8 8 8 8 9 7 6 7 7 7 6 6 6 6 5 4 4 3 3 2 2 2 2 1 1 1 1
10 10 15 9 6 7 8 8 7 7 7 7 6 6 6 5 5 6 5 5 4 4 4 3 2 2 1 1 1 1 2 1
12 12 10 9 8 8 9 9 7 8 7 7 7 6 7 5 4 5 4 5 6 5 5 6 6 4 4 4 4 3 3 2
10 13 15 10 7 5 6 11 6 7 8 8 7 11 8 5 4 4 5 6 6 7 7 7 8 7 7 6 6 6 5 5
11 11 10 7 6 5 12 11 6 7 7 7 8 7 5 4 4 5 6 6 7 7 8 7 6 6 8 8 7 5 5 3
10 11 13 6 6 9 7 5 5 6 6 7 6 5 5 5 6 7 8 8 8 8 8 8 7 7 7 7 6 5 4 3
9 10 6 5 6 5 4 6 5 5 5 5 5 5 5 7 7 8 8 8 8 8 8 8 6 6 8 7 5 5 4 3
8 7 6 5 4 4 4 4 4 4 4 4 5 4 4 6 7 7 7 7 6 7 8 7 7 6 6 6 5 5 4 4
8 6 5 5 4 4 4 3 4 3 3 5 4 5 6 7 6 6 6 5 6 6 7 7 7 6 6 6 5 5 5 5
9 6 6 5 4 3 4 4 4 4 4 4 5 6 6 6 6 6 6 5 5 5 6 7 7 7 7 6 5 4 5 5
6 4 4 3 3 3 3 3 3 3 3 4 4 4 5 6 6 5 5 6 6 5 5 5 6 7 6 6 6 5 5 5

GFSFLT2_con_lsi_105.txt.gz
Lid_Strength_Index
5 5 5 7 10 7 11 13 15 13 10 9 6 7 6 6 5 5 4 4 4 2 2 2 1 2 1 1 1 0 0 -0
6 5 5 6 5 10 9 15 17 13 12 12 10 8 7 6 6 5 4 4 3 3 3 1 1 1 1 1 1 0 -0 -0
6 7 7 7 8 7 8 9 12 14 13 8 9 7 7 6 5 5 5 4 4 3 3 1 1 1 1 1 1 1 0 -0
8 5 5 6 7 7 10 11 9 10 14 6 6 6 6 5 5 4 4 4 4 4 3 3 2 1 1 1 1 1 1 -0
10 7 6 7 6 6 7 7 9 10 12 6 6 6 6 5 5 4 4 4 3 3 3 3 2 1 1 1 1 1 0 0
12 10 8 8 7 6 7 9 9 9 9 8 7 7 6 6 5 4 4 4 4 3 3 3 3 2 2 2 1 1 1 0
8 8 7 8 8 7 8 7 9 8 8 6 7 6 6 6 5 5 5 5 4 4 3 3 2 2 1 1 1 1 1 1
10 7 7 8 8 8 7 7 7 7 7 5 5 5 6 6 6 6 6 5 4 4 3 3 3 2 2 2 1 1 1 1
11 8 8 10 8 7 7 6 6 8 6 6 6 6 6 6 6 6 5 5 4 4 3 3 2 2 2 2 1 1 2 1
11 9 14 8 6 6 8 6 7 7 6 6 6 5 5 4 5 6 5 5 4 4 3 2 2 1 1 1 1 1 1 1
12 11 12 9 7 7 8 9 8 7 6 6 6 6 7 5 4 5 4 4 4 4 4 4 3 2 1 2 1 2 2 1
10 14 14 11 8 5 5 10 6 7 7 7 6 9 7 5 4 4 4 4 5 6 6 6 6 5 4 4 3 3 3 1
10 12 11 8 6 5 11 10 5 6 6 7 8 7 5 4 4 4 6 7 7 8 7 7 7 7 7 7 7 5 4 4
9 14 16 5 6 10 7 5 5 5 5 6 6 5 5 5 6 6 7 8 8 8 8 8 7 7 8 8 7 5 4 4
11 11 6 4 5 4 4 5 4 5 5 5 5 6 5 6 7 8 8 8 7 8 8 7 6 6 8 7 6 5 5 4
8 7 6 5 4 4 4 4 3 3 4 5 6 6 6 7 8 8 7 8 8 8 8 8 7 7 6 6 5 5 5 4
8 6 5 4 4 4 4 3 3 3 3 4 5 6 7 7 7 7 7 6 6 7 8 8 7 7 6 6 5 5 4 4
9 6 5 5 3 3 4 4 4 4 4 3 5 6 6 7 6 7 6 5 6 6 7 6 6 7 6 6 5 5 5 5
5 4 4 3 3 2 3 3 3 3 3 4 4 4 4 6 5 5 6 6 6 5 5 5 5 6 6 5 5 5 5 6

GFSFLT2_con_lsi_108.txt.gz
Lid_Strength_Index
5 5 6 8 10 7 13 13 14 15 12 9 7 7 7 7 6 5 5 4 4 3 3 3 2 2 2 2 1 1 1 1
6 5 6 7 6 10 10 17 18 16 14 16 10 9 8 7 7 6 4 4 4 3 3 3 2 1 2 1 1 1 1 1
6 7 8 8 8 8 8 10 14 19 17 10 9 8 7 7 6 5 5 4 4 3 3 3 2 2 2 1 1 1 1 1
9 6 5 6 7 7 10 11 10 11 14 7 8 8 7 6 6 5 4 4 3 3 3 3 3 2 2 1 1 1 1 0
10 8 6 7 7 7 7 8 10 11 13 8 8 8 6 6 5 5 4 4 4 4 4 3 3 4 2 2 2 1 1 1
12 12 9 9 8 7 8 10 9 9 11 9 8 7 6 6 5 5 5 5 4 3 4 3 3 3 2 2 1 1 1 1
9 8 8 8 8 8 8 8 9 8 9 9 7 7 6 5 5 6 5 5 4 4 3 3 3 3 2 2 1 1 1 1
9 8 8 9 8 8 7 7 8 8 8 6 7 7 6 6 6 6 6 5 5 4 3 3 3 3 2 2 1 1 1 1
11 8 8 11 8 8 7 7 7 9 8 6 7 8 8 6 6 6 5 5 5 4 4 3 3 2 2 2 1 1 1 1
11 10 15 9 7 7 7 6 7 8 7 8 8 7 7 5 6 6 5 5 4 4 3 3 2 2 2 1 1 2 2 1
12 11 10 9 9 8 9 9 7 8 7 6 6 7 7 5 5 5 5 5 6 6 5 5 4 2 2 2 2 2 2 2
11 13 15 11 7 5 6 11 6 6 7 7 7 11 9 5 4 5 5 6 6 6 7 7 7 4 5 4 2 2 2 2
11 13 12 8 7 5 12 12 7 6 6 7 8 8 6 5 5 6 6 7 7 7 7 7 7 6 6 6 7 5 4 3
12 15 16 6 7 10 7 6 6 6 5 6 6 5 6 6 7 7 7 7 7 8 8 7 6 7 7 7 6 5 4 4
11 11 8 6 7 5 4 5 5 5 5 5 6 6 6 7 7 8 8 7 7 7 8 7 7 7 8 7 6 5 6 6
10 8 8 5 4 4 4 4 4 4 4 5 6 7 6 7 7 7 8 8 7 8 8 8 8 7 6 6 6 6 6 5
7 7 7 5 4 4 4 3 4 4 4 4 4 6 6 7 7 7 7 7 8 8 8 7 6 7 7 7 5 6 5 6
9 5 6 5 4 3 4 4 4 4 4 3 3 4 6 6 6 6 6 6 7 6 7 7 7 7 7 5 5 6 6 6
7 4 5 4 3 2 3 4 3 4 3 4 3 3 3 5 5 5 6 6 6 5 5 6 6 6 6 6 6 6 5 6

GFSFLT2_con_lsi_111.txt.gz
Lid_Strength_Index
6 6 8 10 13 9 15 14 16 16 14 10 9 8 7 7 6 6 5 5 5 4 3 3 2 2 2 2 2 1 1 1
7 7 8 8 8 13 13 20 20 17 15 16 11 10 8 7 7 6 5 5 4 4 3 3 2 2 2 1 2 1 1 1
8 10 11 12 12 12 12 13 18 20 17 11 10 9 9 8 6 6 5 5 4 4 3 3 2 2 2 2 2 2 1 1
11 8 7 10 12 12 14 14 13 14 15 8 8 8 8 8 7 6 5 4 4 4 3 3 3 3 2 2 2 1 1 1
12 10 8 11 10 10 12 13 15 15 15 8 8 7 7 7 7 6 5 4 4 4 4 4 3 3 3 3 2 1 1 1
16 14 10 11 9 9 11 14 14 14 14 11 9 9 8 6 7 6 5 5 5 5 4 3 3 3 3 3 2 1 1 1
10 9 9 9 9 9 11 11 13 12 13 12 9 9 8 7 6 6 6 5 5 5 4 4 3 3 2 2 2 1 2 2
11 9 9 10 9 9 9 9 10 11 13 9 8 7 8 7 7 7 6 6 5 4 4 4 4 4 2 2 2 1 2 2
14 10 10 13 10 9 9 9 11 14 12 9 9 8 8 7 7 7 6 6 5 5 4 4 3 3 3 2 2 2 2 2
14 12 18 11 7 8 10 9 9 10 9 8 8 7 7 6 6 6 6 7 6 5 5 5 3 2 2 2 2 2 2 2
15 15 12 11 9 9 10 12 8 9 8 8 7 7 8 5 5 6 6 6 6 6 6 5 5 3 2 2 2 2 2 2
14 17 17 12 8 7 7 15 8 8 8 8 8 12 9 5 6 7 7 7 8 7 7 6 6 4 4 4 3 3 2 2
15 16 14 9 7 6 14 15 8 7 7 8 9 8 6 6 7 6 6 7 7 7 7 7 6 6 7 6 6 5 3 2
14 16 17 7 8 12 10 7 7 7 7 7 6 6 7 7 8 7 7 7 7 7 8 7 6 6 7 7 6 5 5 4
12 13 8 7 8 6 6 7 7 6 6 6 6 6 7 8 7 7 7 7 8 8 8 8 7 7 7 7 6 5 5 5
11 9 8 7 6 5 5 6 5 5 5 6 6 6 7 7 8 7 7 8 7 8 8 8 7 8 6 6 6 6 6 5
11 9 7 6 5 5 5 4 5 4 4 5 5 5 6 7 6 6 7 7 8 8 8 8 7 8 7 7 6 6 7 6
12 8 8 7 5 4 5 5 5 5 5 4 4 5 5 6 6 6 7 7 7 8 8 8 8 8 7 6 6 6 7 6
8 6 6 5 4 4 5 4 4 4 4 4 4 4 5 5 5 5 5 6 7 7 7 6 7 8 7 6 7 8 8 9

GFSFLT2_con_lsi_114.txt.gz
Lid_Strength_Index
8 8 9 12 14 10 15 15 17 16 13 10 9 8 8 7 6 6 5 5 4 4 3 3 3 2 2 2 2 1 1 1
8 8 8 10 9 14 14 20 20 18 16 16 12 11 9 8 7 6 5 5 4 4 3 3 2 2 2 2 2 1 1 1
10 12 11 12 13 13 13 14 18 20 17 10 10 9 9 8 7 6 6 5 5 4 3 3 2 2 2 2 2 2 1 1
12 9 8 11 13 14 15 15 14 15 14 8 8 8 8 8 7 6 5 5 4 4 3 3 3 2 2 2 2 1 1 1
13 11 9 11 10 12 14 16 16 16 15 8 8 8 8 8 7 6 5 5 4 4 4 4 3 3 2 2 2 1 1 1
15 13 11 12 10 10 14 16 16 15 13 11 10 10 9 8 7 6 5 5 4 5 4 4 3 3 3 3 3 3 2 2
10 10 9 10 10 10 13 12 14 12 14 12 10 9 8 7 6 7 6 6 5 5 4 4 3 3 3 3 2 2 2 2
13 9 10 10 10 11 11 11 12 12 14 9 8 7 8 7 7 7 6 6 5 5 4 4 3 4 3 3 3 2 2 2
15 10 11 14 11 11 11 11 12 15 12 9 9 9 8 8 7 7 6 5 6 5 4 4 3 3 3 3 2 2 2 2
15 13 18 13 8 9 11 10 10 10 9 9 8 7 7 6 6 6 6 5 5 5 5 4 3 3 2 3 2 2 2 2
16 16 14 12 10 10 11 12 9 10 9 8 7 7 7 5 5 6 6 6 5 5 6 5 4 3 2 2 2 2 2 2
15 18 17 13 9 7 8 15 8 8 9 9 8 12 9 6 6 7 7 7 7 6 6 5 6 4 3 3 3 3 2 2
15 16 14 9 8 7 14 14 8 7 8 9 9 8 6 6 7 7 7 7 6 7 7 6 6 5 5 5 5 4 2 2
14 16 17 7 8 12 10 8 7 7 7 7 6 7 8 7 7 7 7 7 7 7 7 7 6 6 7 7 6 5 3 4
12 13 9 7 8 6 7 7 7 6 6 7 7 7 7 7 7 7 6 7 7 8 8 7 6 6 7 6 5 6 7 8
11 10 9 7 6 5 5 6 5 5 6 7 6 5 6 7 6 7 7 7 7 7 8 8 7 7 6 6 6 5 6 8
11 9 8 7 6 6 5 5 5 5 4 5 5 5 6 6 6 7 7 7 7 7 8 8 7 7 6 6 5 6 6 7
12 8 8 8 5 5 5 5 5 5 5 4 6 6 5 6 5 6 7 7 7 8 8 8 8 7 7 6 6 6 7 5
8 6 6 6 5 4 5 5 4 4 4 5 5 5 6 7 7 5 5 7 7 7 7 7 7 7 6 6 7 8 8 8

GFSFLT2_con_lsi_117.txt.gz
Lid_Strength_Index
8 8 9 12 15 11 15 16 18 16 14 10 9 9 8 7 6 6 5 5 4 4 3 3 3 2 2 2 2 2 2 1
10 8 8 11 9 15 15 20 21 17 16 15 12 11 9 8 7 6 5 5 5 4 3 3 2 2 2 2 2 2 1 1
11 13 13 13 14 14 13 15 18 20 17 10 11 10 9 8 7 6 6 5 5 4 3 3 2 2 2 2 2 2 1 1
13 10 9 11 13 14 15 16 15 15 15 9 9 9 8 8 7 6 5 5 4 4 3 3 3 3 2 2 2 1 1 1
14 12 10 11 11 12 15 17 17 17 15 9 9 9 8 8 7 6 5 5 4 4 4 4 3 3 2 2 2 1 1 1
16 14 12 12 10 11 14 15 15 16 15 12 10 10 8 8 7 6 6 5 5 5 4 4 3 3 2 2 2 1 1 1
11 10 11 10 12 12 13 14 14 15 14 12 10 9 8 7 7 7 6 6 5 5 4 4 3 3 2 2 2 1 2 2
11 9 10 13 11 11 12 12 13 13 13 9 8 7 8 7 7 7 7 6 5 5 4 4 3 3 3 2 2 2 2 2
15 11 11 14 13 12 12 11 12 15 12 9 9 9 8 8 7 7 6 6 5 5 4 4 3 3 3 3 3 3 2 2
15 13 17 12 9 9 11 11 10 10 9 9 9 7 7 6 6 6 7 5 5 4 4 4 3 3 2 3 3 2 2 2
16 17 14 12 10 11 12 12 9 10 9 8 7 7 7 6 6 7 7 6 5 5 5 5 4 2 2 2 3 2 2 2
15 18 19 13 9 7 8 15 8 8 10 10 9 12 9 6 7 7 6 7 7 7 6 6 5 4 2 3 3 3 2 2
16 17 14 9 8 7 15 14 8 8 8 10 10 8 6 6 7 7 7 7 6 6 7 7 6 5 5 3 4 3 1 1
15 17 17 7 8 12 9 7 7 8 7 7 6 6 7 7 7 7 7 6 7 7 7 7 6 6 6 5 4 4 4 4
13 13 8 7 8 6 6 7 7 7 6 6 6 6 6 7 7 7 6 7 7 7 8 7 6 6 7 7 6 7 6 6
12 10 9 8 5 6 5 6 6 6 7 6 6 5 6 6 7 7 7 7 7 7 8 8 7 6 6 6 6 7 8 8
11 10 8 7 6 6 5 5 5 6 6 5 5 5 5 6 7 6 7 7 7 7 8 8 8 7 6 6 6 6 7 8
12 8 8 8 6 5 6 5 5 5 5 5 6 7 7 7 6 6 7 7 8 8 8 8 8 8 7 7 6 6 6 7
8 6 6 6 5 4 5 5 4 4 5 5 6 6 6 7 7 5 6 7 7 8 8 8 8 7 8 7 8 9 9 10

GFSFLT2_con_lsi_120.txt.gz
Lid_Strength_Index
8 9 10 13 15 12 16 15 17 16 14 10 9 8 7 7 6 6 5 5 4 4 3 3 3 2 2 2 2 1 1 1
9 8 9 11 9 15 15 20 21 17 16 16 12 11 9 8 7 6 5 5 4 4 3 3 2 2 2 1 2 1 1 1
12 12 13 12 13 14 13 14 18 20 16 11 12 10 9 8 7 6 6 5 5 4 3 3 2 2 2 2 2 1 1 1
12 10 10 11 13 14 15 16 15 15 15 9 9 9 8 8 7 6 5 5 4 4 3 3 3 2 2 2 2 1 1 1
14 11 11 12 12 14 16 16 17 17 15 9 9 9 8 8 7 6 5 5 4 4 4 3 3 3 2 2 2 1 1 1
16 14 12 12 11 12 14 16 16 16 15 11 10 10 9 8 7 6 6 5 5 4 4 3 3 3 2 2 1 1 1 1
11 10 11 11 12 12 15 15 14 14 14 12 10 9 8 7 7 7 6 6 5 5 4 4 3 3 2 2 2 1 2 2
12 10 10 13 12 12 12 13 12 12 13 9 8 7 8 7 7 7 7 6 5 4 4 4 3 3 2 2 2 1 2 2
15 11 11 14 12 13 12 11 12 15 12 9 9 9 8 7 7 7 6 6 5 4 4 4 3 3 3 3 2 2 2 2
14 14 19 13 9 10 11 11 10 10 9 9 8 7 6 6 6 6 6 6 6 6 5 3 2 3 2 2 3 2 2 2
15 16 14 12 10 11 12 12 9 10 9 8 7 7 7 6 6 7 7 6 6 6 6 5 5 2 2 2 2 2 2 2
15 18 19 13 9 7 8 15 8 8 9 9 8 12 9 6 6 7 6 6 7 7 6 6 6 4 2 3 3 3 2 2
15 17 14 9 8 7 15 13 7 7 7 8 9 8 6 6 6 6 6 6 5 6 6 7 6 4 4 3 4 3 1 1
15 17 17 8 8 12 9 7 7 7 7 7 6 6 5 6 7 7 7 6 6 6 7 6 6 6 6 6 5 3 3 3
12 13 9 7 8 6 6 7 7 7 6 6 6 6 5 6 6 6 6 7 7 7 7 7 6 6 7 7 6 7 6 6
11 10 9 7 6 6 5 6 6 6 5 5 6 5 5 5 6 6 6 7 7 7 8 8 7 6 6 6 6 7 8 8
11 9 8 7 6 6 5 5 5 6 6 5 5 5 5 5 6 8 7 7 7 8 8 8 8 7 6 6 6 6 7 8
12 8 8 7 6 5 6 6 5 5 5 5 6 6 7 7 7 6 7 7 7 8 7 7 8 7 7 7 5 6 7 8
8 7 6 6 5 4 5 5 4 4 5 6 6 6 7 7 7 6 6 6 7 7 7 7 8 7 7 7 8 9 9 7

GFSFLT2_con_lsi_123.txt.gz
Lid_Strength_Index
7 7 8 11 12 9 13 13 15 13 12 9 8 8 7 6 6 6 5 4 3 3 2 2 2 2 1 1 1 1 0 0
8 7 8 9 8 13 12 18 18 14 14 13 12 11 8 8 7 6 5 4 4 4 3 2 2 1 1 1 1 1 0 0
9 10 11 11 11 11 11 13 15 16 14 10 11 10 9 7 6 5 5 4 4 4 2 2 1 1 1 1 1 1 1 0
10 7 8 8 9 10 13 14 12 13 12 8 9 8 8 7 6 5 4 4 4 4 3 2 2 2 2 1 1 1 0 0
11 9 8 9 8 9 11 10 11 13 11 8 8 8 7 7 6 5 5 5 4 4 4 3 2 2 2 1 1 1 0 1
12 11 9 10 10 9 10 11 11 11 12 11 9 9 8 7 6 5 5 5 5 4 3 3 3 2 2 2 1 1 1 1
9 9 9 11 11 11 11 11 12 10 12 11 9 9 8 6 6 6 6 5 5 4 4 3 3 2 2 1 1 1 1 1
10 9 9 11 10 10 11 11 11 11 12 8 8 7 7 7 7 7 6 6 5 4 4 4 3 2 2 2 2 1 2 1
11 10 10 12 10 10 10 10 11 13 10 8 9 8 8 7 7 7 6 6 5 5 4 3 3 3 2 2 1 2 1 1
11 11 15 10 8 9 10 10 9 9 9 8 8 7 6 5 6 6 7 7 6 6 5 4 3 2 2 1 1 2 2 2
12 12 11 10 9 10 10 11 8 9 8 8 7 7 7 5 6 6 6 6 6 6 6 5 4 3 2 2 2 2 2 2
13 15 15 11 8 7 7 12 7 7 8 8 7 11 9 6 6 6 6 6 6 5 5 5 4 3 3 2 2 2 2 2
12 13 11 8 7 6 13 11 7 6 6 7 8 7 5 5 5 5 5 6 5 5 5 5 5 4 4 3 3 2 1 1
12 14 14 7 7 11 8 6 6 6 6 6 6 5 5 5 6 5 5 6 7 7 6 5 5 6 6 6 4 3 1 2
10 10 7 6 6 5 5 6 6 5 5 5 5 5 5 5 5 5 5 6 5 6 6 5 4 4 6 6 5 5 5 6
10 8 7 6 5 5 5 5 5 4 4 4 5 5 4 4 5 5 5 5 5 5 6 6 4 3 5 5 6 6 7 7
9 7 6 6 5 5 5 4 4 4 4 4 4 4 4 4 5 5 4 4 4 6 6 6 6 5 4 5 6 6 6 7
9 6 6 6 4 4 5 5 4 4 4 3 3 4 3 4 4 4 4 4 5 5 6 6 6 5 5 4 5 6 8 8
6 5 5 4 4 4 4 4 4 4 3 4 3 3 3 3 3 4 4 4 4 5 4 4 5 5 5 4 5 6 6 7